Погода в Черби

Россия / Республика Тыва     51°53′21″N   94°35′21″E
темп.,
°C
ветер,
м/с
пор.,
м/с
влажн.,
%
обл.,
%
осадки,
мм/ч
давл.,
гПа
погр.,
м
25 июля, вс
вс2501:00+16ссз1176100 0.0 100718
04:00+13с1184100 0.0 100712
07:00+16сз1170100 0.0 1008185
10:00+18зсз1170100 0.3 1007457
13:00+19з1168100 0.4 1007415
16:00+19с226695 0.1 1006356
19:00+22сз215888 0.5 1005536
22:00+16с2279100 0.2 100617
26 июля, пн
пн2601:00+16св2276100 0.3 100636
04:00+16св117881 0.1 100511
07:00+17ссз0176100 0.1 100635
10:00+17ссз0177100 0.1 1005103
13:00+23зсз115074 0.1 1003692
16:00+26з323796 0.0 10011802
19:00+20сз356595 0.3 1003421
22:00+16ссз228567 0.3 100422
27 июля, вт
вт2701:00+14ссв128478 0.3 100417
04:00+14с118688 0.1 100411
07:00+17сз117366 0.1 1004151
10:00+21зюз215624 0.2 1003851
13:00+25сз224015 0.6 10012127
16:00+24ссз344594 0.5 10001291
19:00+22с345472 1.4 1001582
22:00+16ссв337870 0.1 100365
28 июля, ср
ср2801:00+15с2377100 0.1 100372
04:00+13с228694 0.1 100342
07:00+13ссз2292100 1.4 1004133
10:00+14сз228793 0.3 1005420
13:00+14сз348392 0.5 1005502
16:00+15ссз466653 0.1 1006706
19:00+14ссз56595 0.1 1007735
22:00+9с33850 0.0 100937
29 июля, чт
чт2901:00+7с32860 0.0 101029
04:00+6с32860 0.0 101126
07:00+10ссз22680 0.0 1011220
10:00+16з22441 0.0 10101230
13:00+20з44314 0.0 10082238
16:00+22з54278 0.0 10072505
19:00+20ссз33344 0.0 10071325
22:00+12св44614 0.0 101039